{"data":{"norad_id":42808,"epoch":"2026-09-20T03:33:06.939072Z","epoch_age_seconds":45885,"freshness":"FRESH","line1":"1 42808U 17039F   26263.14799698  .00000046  00000+0  93377-5 0  9997","line2":"2 42808  86.3973 313.9189 0002243  92.6780 267.4673 14.34217678483583","mean_motion":14.34217678,"eccentricity":0.0002243,"inclination_deg":86.3973,"raan_deg":313.9189,"arg_perigee_deg":92.678,"mean_anomaly_deg":267.4673,"bstar":9.3377e-6,"rev_number":48358,"period_min":100.40316906483,"perigee_km":776.06234691641,"apogee_km":779.27244076749,"semimajor_km":7155.804393842,"source":"CELESTRAK","updated_at":"2026-09-20T09:00:36.323050Z"}}